Weather History for Monett, MO

Change the Weather History Date:

Thursday, May 15, 2014

  Actual Average (KJLN) Record (KJLN)
Temperature  
Mean Temperature 49 °F 67 °F  
Max Temperature 59 °F 77 °F 87 °F (2001)
Min Temperature 39 °F 56 °F 39 °F (1959)
Degree Days  
Heating Degree Days 16 2  
Month to date heating degree days 45  
Since 1 July heating degree days 4048  
Cooling Degree Days 0 4  
Month to date cooling degree days 44  
Year to date cooling degree days 98  
Moisture  
Dew Point 37 °F    
Average Humidity 66    
Maximum Humidity 93    
Minimum Humidity 34    
Precipitation  
Precipitation 0.00 in 0.18 in 1.02 in (1958)
Month to date precipitation 2.85  
Year to date precipitation 15.09  
Sea Level Pressure  
Sea Level Pressure 30.13 in    
Wind  
Wind Speed 7 mph (West)    
Max Wind Speed 18 mph    
Max Gust Speed 24 mph    
Visibility 10 miles    
Events      
T = Trace of Precipitation, MM = Missing Value Source: NWS Daily Summary

Daily Weather History Graph

Daily Weather History Graph

Search for Another Location

Airport:

Trip Planner

Search our weather history database for the weather conditions in past years. The results will help you decide how hot, cold, wet, or windy it might be!

Date:

Astronomy

May. 15, 2014 Rise Set
Actual Time 6:08 AM CDT 8:17 PM CDT
Civil Twilight 5:39 AM CDT 8:46 PM CDT
Nautical Twilight 5:03 AM CDT 9:21 PM CDT
Astronomical Twilight 4:25 AM CDT 10:00 PM CDT
Moon 9:25 PM CDT (5/15) 6:55 AM CDT (5/15)
Length of Visible Light 15h 06m
Length of Day
14h 08m
Full, 99% of the Moon is Illuminated
May 15
Full
May 21
Last Quarter
May 28
New
Jun 5
First Quarter
Jun 12
Full

Hourly Weather History & Observations

Time (CDT) Temp. Windchill Dew Point Humidity Pressure Visibility Wind Dir Wind Speed Gust Speed Precip Events Conditions
12:15 AM 42.8 °F 40.1 °F 41.0 °F 93% 30.15 in 10.0 mi SSW 4.6 mph - N/A   Overcast
12:35 AM 42.8 °F 40.1 °F 41.0 °F 93% 30.15 in 10.0 mi SW 4.6 mph - N/A   Scattered Clouds
12:55 AM 42.8 °F 40.1 °F 41.0 °F 93% 30.15 in 10.0 mi SW 4.6 mph - N/A   Clear
1:15 AM 42.8 °F 40.1 °F 41.0 °F 93% 30.14 in 10.0 mi South 4.6 mph - N/A   Clear
1:35 AM 42.8 °F 39.3 °F 39.2 °F 87% 30.13 in 10.0 mi South 5.8 mph - N/A   Mostly Cloudy
1:55 AM 42.8 °F 40.1 °F 39.2 °F 87% 30.14 in 10.0 mi WSW 4.6 mph - N/A   Overcast
2:15 AM 42.8 °F - 39.2 °F 87% 30.13 in 10.0 mi Calm Calm - N/A   Mostly Cloudy
2:35 AM 41.0 °F 39.0 °F 37.4 °F 87% 30.12 in 10.0 mi SSE 3.5 mph - N/A   Scattered Clouds
2:55 AM 41.0 °F 38.0 °F 37.4 °F 87% 30.12 in 10.0 mi South 4.6 mph - N/A   Mostly Cloudy
3:15 AM 39.2 °F - 37.4 °F 93% 30.12 in 10.0 mi Calm Calm - N/A   Mostly Cloudy
3:35 AM 41.0 °F - 37.4 °F 87% 30.12 in 10.0 mi Calm Calm - N/A   Mostly Cloudy
3:55 AM 41.0 °F 38.0 °F 37.4 °F 87% 30.11 in 10.0 mi South 4.6 mph - N/A   Scattered Clouds
4:15 AM 41.0 °F 38.0 °F 37.4 °F 87% 30.11 in 10.0 mi South 4.6 mph - N/A   Scattered Clouds
4:35 AM 41.0 °F 38.0 °F 37.4 °F 87% 30.11 in 10.0 mi South 4.6 mph - N/A   Overcast
4:55 AM 41.0 °F 39.0 °F 37.4 °F 87% 30.11 in 10.0 mi South 3.5 mph - N/A   Overcast
5:15 AM 41.0 °F - 39.2 °F 93% 30.12 in 10.0 mi Calm Calm - N/A   Overcast
5:35 AM 41.0 °F 37.1 °F 37.4 °F 87% 30.12 in 10.0 mi SW 5.8 mph - N/A   Overcast
5:55 AM 41.0 °F 38.0 °F 37.4 °F 87% 30.12 in 10.0 mi SSW 4.6 mph - N/A   Mostly Cloudy
6:15 AM 41.0 °F 38.0 °F 37.4 °F 87% 30.12 in 10.0 mi SSW 4.6 mph - N/A   Mostly Cloudy
6:35 AM 41.0 °F 36.4 °F 37.4 °F 87% 30.12 in 10.0 mi South 6.9 mph - N/A   Overcast
6:55 AM 42.8 °F 37.5 °F 37.4 °F 81% 30.11 in 10.0 mi South 9.2 mph - N/A   Scattered Clouds
7:15 AM 44.6 °F 40.2 °F 39.2 °F 81% 30.12 in 10.0 mi South 8.1 mph - N/A   Mostly Cloudy
7:35 AM 44.6 °F 40.2 °F 41.0 °F 87% 30.12 in 10.0 mi SSW 8.1 mph - N/A   Mostly Cloudy
7:55 AM 44.6 °F 40.2 °F 41.0 °F 87% 30.13 in 10.0 mi SW 8.1 mph - N/A   Scattered Clouds
8:15 AM 46.4 °F 41.5 °F 42.8 °F 87% 30.12 in 10.0 mi SW 10.4 mph - N/A   Clear
8:35 AM 48.2 °F - 42.8 °F 82% 30.12 in 10.0 mi WSW 9.2 mph - N/A   Clear
8:55 AM 50.0 °F - 42.8 °F 76% 30.13 in 10.0 mi WSW 9.2 mph - N/A   Clear
9:15 AM 50.0 °F - 44.6 °F 82% 30.13 in 10.0 mi West 8.1 mph - N/A   Clear
9:35 AM 51.8 °F - 44.6 °F 76% 30.14 in 10.0 mi West 9.2 mph - N/A   Clear
9:55 AM 53.6 °F - 44.6 °F 72% 30.14 in 10.0 mi WNW 6.9 mph - N/A   Scattered Clouds
10:15 AM 55.4 °F - 44.6 °F 67% 30.14 in 10.0 mi WNW 8.1 mph - N/A   Scattered Clouds
10:35 AM 55.4 °F - 44.6 °F 67% 30.14 in 10.0 mi WNW 8.1 mph - N/A   Clear
10:55 AM 55.4 °F - 44.6 °F 67% 30.14 in 10.0 mi WNW 10.4 mph - N/A   Clear
11:15 AM 55.4 °F - 44.6 °F 67% 30.15 in 10.0 mi NW 13.8 mph 18.4 mph N/A   Clear
11:35 AM 55.4 °F - 44.6 °F 67% 30.15 in 10.0 mi NW 10.4 mph - N/A   Scattered Clouds
11:55 AM 57.2 °F - 44.6 °F 63% 30.15 in 10.0 mi NW 15.0 mph 20.7 mph N/A   Mostly Cloudy
12:35 PM 57.2 °F - 42.8 °F 59% 30.15 in 10.0 mi NW 15.0 mph 18.4 mph N/A   Scattered Clouds
12:55 PM 59.0 °F - 42.8 °F 55% 30.15 in 10.0 mi NW 16.1 mph 20.7 mph N/A   Scattered Clouds
1:15 PM 59.0 °F - 41.0 °F 51% 30.15 in 10.0 mi NW 10.4 mph 18.4 mph N/A   Scattered Clouds
2:15 PM 59.0 °F - 37.4 °F 45% 30.14 in 10.0 mi WNW 13.8 mph 20.7 mph N/A   Scattered Clouds
2:55 PM 59.0 °F - 33.8 °F 39% 30.13 in 10.0 mi WNW 17.3 mph 23.0 mph N/A   Clear
3:15 PM 59.0 °F - 32.0 °F 36% 30.12 in 10.0 mi NW 16.1 mph 21.9 mph N/A   Clear
3:35 PM 59.0 °F - 32.0 °F 36% 30.12 in 10.0 mi NW 13.8 mph 21.9 mph N/A   Clear
3:55 PM 59.0 °F - 32.0 °F 36% 30.12 in 10.0 mi WNW 15.0 mph 20.7 mph N/A   Clear
4:15 PM 59.0 °F - 30.2 °F 34% 30.12 in 10.0 mi NW 17.3 mph 23.0 mph N/A   Clear
4:35 PM 59.0 °F - 32.0 °F 36% 30.12 in 10.0 mi NW 17.3 mph - N/A   Clear
4:55 PM 59.0 °F - 32.0 °F 36% 30.12 in 10.0 mi NW 18.4 mph 23.0 mph N/A   Clear
5:15 PM 57.2 °F - 32.0 °F 38% 30.12 in 10.0 mi NW 11.5 mph 17.3 mph N/A   Clear
5:35 PM 59.0 °F - 32.0 °F 36% 30.12 in 10.0 mi NNW 16.1 mph 21.9 mph N/A   Clear
5:55 PM 59.0 °F - 30.2 °F 34% 30.11 in 10.0 mi NNW 12.7 mph 24.2 mph N/A   Clear
6:15 PM 57.2 °F - 32.0 °F 38% 30.11 in 10.0 mi NW 13.8 mph 18.4 mph N/A   Clear
6:35 PM 57.2 °F - 30.2 °F 36% 30.12 in 10.0 mi NW 13.8 mph 20.7 mph N/A   Clear
6:55 PM 57.2 °F - 32.0 °F 38% 30.12 in 10.0 mi NW 11.5 mph 18.4 mph N/A   Clear
7:15 PM 55.4 °F - 30.2 °F 38% 30.12 in 10.0 mi NW 10.4 mph 18.4 mph N/A   Clear
7:35 PM 55.4 °F - 32.0 °F 41% 30.13 in 10.0 mi NW 5.8 mph - N/A   Clear
7:55 PM 53.6 °F - 32.0 °F 44% 30.13 in 10.0 mi NW 5.8 mph - N/A   Clear
8:15 PM 51.8 °F - 32.0 °F 47% 30.13 in 10.0 mi Calm Calm - N/A   Clear
8:35 PM 51.8 °F - 32.0 °F 47% 30.13 in 10.0 mi Calm Calm - N/A   Clear
8:55 PM 50.0 °F - 32.0 °F 50% 30.13 in 10.0 mi Calm Calm - N/A   Clear
9:15 PM 50.0 °F - 32.0 °F 50% 30.13 in 10.0 mi Calm Calm - N/A   Clear
9:35 PM 50.0 °F - 32.0 °F 50% 30.13 in 10.0 mi Calm Calm - N/A   Clear
9:55 PM 46.4 °F - 33.8 °F 62% 30.14 in 10.0 mi Calm Calm - N/A   Clear
10:15 PM 46.4 °F - 33.8 °F 62% 30.14 in 10.0 mi Calm Calm - N/A   Clear
10:35 PM 44.6 °F - 33.8 °F 66% 30.14 in 10.0 mi Calm Calm - N/A   Clear
10:55 PM 44.6 °F - 33.8 °F 66% 30.14 in 10.0 mi Calm Calm - N/A   Clear
11:15 PM 44.6 °F 43.1 °F 33.8 °F 66% 30.14 in 10.0 mi SSE 3.5 mph - N/A   Clear
11:55 PM 42.8 °F 41.1 °F 33.8 °F 70% 30.13 in 10.0 mi South 3.5 mph - N/A   Clear